PEGASUS DEB, 39306

Orbit data source: Space-Track

PEGASUS DEB, 39306 is space debris in LEO originally from a launch on Thu, 19 May 1994 UTC launched from the Air Force Western Test Range (AFWTR). Debris objects in space refer to the collection of defunct objects orbiting the Earth. Examples of debris include non-operational satellites, rocket bodies, and fragments generated from explosions, collisions, or faulty payload assembly.

Loading next visibility...
Identifier
39306, 1994-029AER
Orbit
LEO
Country
Flag of USUS
Related business
Manufacturer
Unknown
Mission
Spacecraft
Bus & Motor
Unknown
Mass
Unknown
Launch date (UTC)
1994-05-19 (32 years ago)
Launch vehicle
Unknown
Launch site
Air Force Western Test Range (AFWTR)
Object type
Payload
Rocket body
Debris
Shape & HBR
Unknown shape, 0.1 m
Radar Cross Section
Small (<0.1 m²)

Expand to show TLE details & history
Last TLE update: 2 weeks ago

TLE from 2 weeks ago
0 PEGASUS DEB
1 39306U 94029AER 26134.36492376  .00077458  00000-0  38663-2 0  9990
2 39306  81.7345 273.2335 0104795 181.9463 178.1374 15.12413532103804
Epoch: 2026-05-14T08:45Z
TLE epoch observation values (Epoch: 2026-05-14T08:45:29.412Z)
Latitude
-0.00011°
Longitude
-90.25071°
Altitude
604.257 km
Speed
7.518 km/s
True Right ascension
18h 12m 56s
True Declination
0° 00' 00"
Sunlit
Object was in full shadow at epoch
Visualization orbit readout
Latitude
Unknown
Longitude
Unknown
Altitude
Unknown
Speed
Unknown
Apparent Right ascension
Unknown
Apparent Declination
Unknown
Sunlit
N/A
Visualization observer readout
Local Sidereal Time
20:52:40
Azimuth
Unknown
Elevation
Unknown
Doppler factor
Unknown
Orbital elements
Apogee altitude
598.207 km
Perigee altitude
453.506 km
Semi-major axis
6,903.993 km
Eccentricity
0.01048
Inclination
81.7345°
RAAN
273.2335°
Arg. of periapsis
181.9463°
True anomaly
178.17593°
Mean anomaly
178.1374°
Eccentric anomaly
178.15671°
Mean motion
3.78349 °/min
Orbital period
95.15 mins
BSTAR
0.0038663
Loading maneuver chart data...
Computing Atmospheric mass density...

Documentation

Showing up to 5 results
|